Header for Extended Forecast Station List Page

Search by: ID | Name | Date | Parm | Value | Avg | % Avg
Sort by: ID | Name | Date | Parm | Value | Avg | % Avg

Enter search or view all records.

Click on id for station plot
#IDNameDateParmValueAvg% Avg
0LEOI1KOOTENAI-AT LEONIA12-05-2022DISCHARGE (KAF)1720227576
1FCFM8NF FLATHEAD-NEAR COLUMBIA FALLS12-05-2022DISCHARGE (KAF)11218760
2WGCM8MF FLATHEAD-NEAR WEST GLACIER12-05-2022DISCHARGE (KAF)4216925
3CFMM8FLATHEAD-AT COLUMBIA FALLS12-05-2022DISCHARGE (KAF)86097888
4DLGM8CLARK FORK-AT DEER LODGE12-05-2022DISCHARGE (KAF)435283
5DRMM8CLARK FORK-NR DRUMMOND12-05-2022DISCHARGE (KAF)11212888
6RCCM8ROCK CREEK-NEAR CLINTON12-05-2022DISCHARGE (KAF)4847102
7BONM8BLACKFOOT-NEAR BONNER12-05-2022DISCHARGE (KAF)11414777
8ABOM8CLARK FORK-ABOVE MISSOULA12-05-2022DISCHARGE (KAF)28434782
9BITM8BITTERROOT-NEAR MISSOULA12-05-2022DISCHARGE (KAF)16821777
10BELM8CLARK FORK-BELOW MISSOULA12-05-2022DISCHARGE (KAF)44157677
11STRM8ST. REGIS-NEAR ST. REGIS12-05-2022DISCHARGE (KAF)195435
12SRGM8CLARK FORK-AT ST REGIS12-05-2022DISCHARGE (KAF)54577870
13PRTI1PRIEST-NEAR PRIEST RIVER12-05-2022DISCHARGE (KAF)12825251
14SPOW1SPOKANE-AT SPOKANE12-05-2022DISCHARGE (KAF)756142153
15SATI1ST MARIES-NEAR SANTA12-05-2022DISCHARGE (KAF)278134
16CIBW1COLUMBIA-AT INTL BOUNDARY12-05-2022DISCHARGE (KAF)156441970379
17LAUW1KETTLE-AT LAURIER12-05-2022DISCHARGE (KAF)7117840
18TONW1OKANOGAN-NEAR TONASKET12-05-2022DISCHARGE (KAF)19032159
19PATW1METHOW-NEAR PATEROS12-05-2022DISCHARGE (KAF)7511267
20ARDW1ENTIAT-NEAR ARDENVOIR12-05-2022DISCHARGE (KAF)142751
21PESW1WENATCHEE-AT PESHASTIN12-05-2022DISCHARGE (KAF)14934743
22EASW1YAKIMA-AT EASTON12-05-2022DISCHARGE (KAF)488458
23TNAW1TEANAWAY-BELOW FORKS12-05-2022DISCHARGE (KAF)476473
24UMTW1YAKIMA-AT UMTANUM12-05-2022DISCHARGE (KAF)22635863
25CLFW1NACHES-NEAR CLIFFDEL12-05-2022DISCHARGE (KAF)5913543
26NACW1NACHES-NEAR NACHES12-05-2022DISCHARGE (KAF)5918831
27PARW1YAKIMA-NEAR PARKER12-05-2022DISCHARGE (KAF)35059259
28KIOW1YAKIMA-AT KIONA12-05-2022DISCHARGE (KAF)49285557
29CHEI1FALL RIVER-NEAR CHESTER12-05-2022DISCHARGE (KAF)9911388
30ANTI1HENRYS FORK-AT ST. ANTHONY12-05-2022DISCHARGE (KAF)30238179
31TEAI1TETON-NEAR ST. ANTHONY12-05-2022DISCHARGE (KAF)729973
32REXI1HENRYS FORK-AT REXBURG12-05-2022DISCHARGE (KAF)34343778
33JKSW4SNAKE-NEAR JACKSON12-05-2022DISCHARGE (KAF)25031679
34ALPW4SNAKE-NEAR ALPINE12-05-2022DISCHARGE (KAF)28637776
35HEII1SNAKE-NEAR HEISE12-05-2022DISCHARGE (KAF)509395129
36SIFI1SNAKE-AB EAGLE ROCK NR IDAHO FALLS12-05-2022DISCHARGE (KAF)67468299
37SHYI1SNAKE-NEAR SHELLEY12-05-2022DISCHARGE (KAF)64868595
38SNAI1SNAKE-AT BLACKFOOT12-05-2022DISCHARGE (KAF)57759996
39BFTI1SNAKE-NEAR BLACKFOOT12-05-2022DISCHARGE (KAF)57858699
40PIHI1PORTNEUF-AT POCATELLO12-05-2022DISCHARGE (KAF)415772
41MILI1SNAKE-AT MILNER12-05-2022DISCHARGE (KAF)485488
42HOTI1BRUNEAU-NEAR HOT SPRINGS12-05-2022DISCHARGE (KAF)153839
43SWAI1SNAKE-BELOW SWAN FALLS12-05-2022DISCHARGE (KAF)1760187794
44HWRI1BIG LOST-AT HOWELL RANCH NEAR CHILLY12-05-2022DISCHARGE (KAF)171891
45HALI1BIG WOOD-AT HAILEY12-05-2022DISCHARGE (KAF)304076
46BIGI1BOISE-AT GLENWOOD BRIDGE12-05-2022DISCHARGE (KAF)13466204
47PARI1BOISE-NEAR PARMA12-05-2022DISCHARGE (KAF)273199137
48EMMI1PAYETTE-NEAR EMMETT12-05-2022DISCHARGE (KAF)31239080
49WSRI1WEISER-NEAR WEISER12-05-2022DISCHARGE (KAF)21021299
50WEII1SNAKE-AT WEISER12-05-2022DISCHARGE (KAF)2870302795
51WHBI1SALMON-AT WHITEBIRD12-05-2022DISCHARGE (KAF)853111577
52TRYO3GRANDE RONDE-TROY12-05-2022DISCHARGE (KAF)28855952
53ANAW1SNAKE-NEAR ANATONE12-05-2022DISCHARGE (KAF)4322581674
54ORFI1CLEARWATER-AT OROFINO12-05-2022DISCHARGE (KAF)510110746
55SPDI1CLEARWATER-AT SPALDING12-05-2022DISCHARGE (KAF)1179207257
56TCHW1WALLA WALLA-NEAR TOUCHET12-05-2022DISCHARGE (KAF)17020682
57GIBO3UMATILLA-NEAR GIBBON12-05-2022DISCHARGE (KAF)546091
58PDTO3UMATILLA-AT PENDLETON12-05-2022DISCHARGE (KAF)13415388
59MYKO3MCKAY CREEK-NEAR PILOT ROCK12-05-2022DISCHARGE (KAF)4138110
60UMAO3UMATILLA-NEAR UMATILLA12-05-2022DISCHARGE (KAF)12714687
61MONO3NF JOHN DAY-AT MONUMENT12-05-2022DISCHARGE (KAF)11726544
62SERO3JOHN DAY-AT SERVICE CK12-05-2022DISCHARGE (KAF)19741548
63MODO3DESCHUTES-AT MOODY NR BIGGS12-05-2022DISCHARGE (KAF)936143265
64PITW1KLICKITAT-NEAR PITT12-05-2022DISCHARGE (KAF)33238985
65HODO3HOOD-NEAR TUCKER BRIDGE12-05-2022DISCHARGE (KAF)279252111
66UNDW1WHITE SALMON-NEAR UNDERWOOD12-05-2022DISCHARGE (KAF)24529384
67LYDM8KOOTENAI-LIBBY DAM12-05-2022INFLOW (KAF)61384173
68HHWM8SF FLATHEAD-HUNGRY HORSE DAM12-05-2022INFLOW (KAF)13026749
69KERM8FLATHEAD-SELI’Š KSANKA QLISPE’ DAM12-05-2022INFLOW (KAF)955144666
70NOXM8CLARK FORK-NOXON RAPIDS DAM12-05-2022INFLOW (KAF)2428314577
71CABI1CLARK FORK-CABINET GORGE DAM12-05-2022INFLOW (KAF)2685361474
72ALFW1PEND OREILLE-ALBENI FALLS DAM12-05-2022INFLOW (KAF)3022412773
73COEI1COEUR D ALENE-COEUR D ALENE LAKE12-05-2022INFLOW (KAF)835132663
74LLKW1SPOKANE-AT LONGLAKE12-05-2022INFLOW (KAF)1059170262
75GCDW1COLUMBIA-GRAND COULEE DAM12-05-2022INFLOW (KAF)168372163478
76CHJW1COLUMBIA-CHIEF JOSEPH DAM12-05-2022INFLOW (KAF)203402386685
77WELW1COLUMBIA-WELLS DAM12-05-2022INFLOW (KAF)206042452484
78CHDW1CHELAN-LAKE CHELAN DAM12-05-2022INFLOW (KAF)6420931
79RRHW1COLUMBIA-ROCKY REACH DAM12-05-2022INFLOW (KAF)208462492784
80WANW1COLUMBIA-WANAPUM DAM12-05-2022INFLOW (KAF)209952554582
81PRWW1COLUMBIA-PRIEST RAPIDS DAM12-05-2022INFLOW (KAF)209932562182
82KEDW1YAKIMA-KEECHELUS LAKE12-05-2022INFLOW (KAF)345363
83KADW1KACHESS-KACHESS DAM12-05-2022INFLOW (KAF)325262
84CLUW1CLE ELUM-CLE ELUM LAKE12-05-2022INFLOW (KAF)5311845
85BUDW1BUMPING-BUMPING LAKE DAM12-05-2022INFLOW (KAF)194047
86RILW1TIETON-RIMROCK LAKE NEAR RIMROCK12-05-2022INFLOW (KAF)457857
87IPDI1HENRYS FORK-ISLAND PARK DAM12-05-2022INFLOW (KAF)8010576
88JLKW4SNAKE-JACKSON LAKE AT DAM12-05-2022INFLOW (KAF)7911768
89PLDI1SF SNAKE-PALISADES DAM12-05-2022INFLOW (KAF)45459177
90RIDI1WILLOW CREEK-RIRIE DAM12-05-2022INFLOW (KAF)61543
91AFRI1SNAKE-AMERICAN FALLS RESERVOIR12-05-2022INFLOW (KAF)12131211100
92MACI1BIG LOST-MACKAY RESERVOIR NEAR MACKAY12-05-2022INFLOW (KAF)303878
93MAGI1BIG WOOD-MAGIC DAM12-05-2022INFLOW (KAF)273676
94LWRI1LITTLE WOOD-LITTLE WOOD DAM12-05-2022INFLOW (KAF)91752
95OWYO3OWYHEE-OWYHEE DAM12-05-2022INFLOW (KAF)174171101
96ARAI1SF BOISE-ANDERSON RANCH DAM12-05-2022INFLOW (KAF)819585
97LUCI1BOISE-LUCKY PEAK DAM12-05-2022INFLOW (KAF)20122191
98WRMO3MALHEUR-WARM SPRINGS DAM12-05-2022INFLOW (KAF)244750
99BERO3MALHEUR-AGENCY VALLEY DAM12-05-2022INFLOW (KAF)172664
100BULO3BULLY CREEK-BULLY CREEK DAM12-05-2022INFLOW (KAF)215414
101CSDI1NF PAYETTE-CASCADE DAM12-05-2022INFLOW (KAF)6811560
102DEDI1DEADWOOD-NEAR LOWMAN12-05-2022INFLOW (KAF)132068
103BRNI1SNAKE-BROWNLEE DAM12-05-2022INFLOW (KAF)3108327795
104DWRI1NF CLEARWATER-DWORSHAK DAM12-05-2022INFLOW (KAF)57988066
105LGDW1SNAKE-LOWER GRANITE DAM12-05-2022INFLOW (KAF)5502805068
106LGSW1SNAKE-LITTLE GOOSE DAM12-05-2022INFLOW (KAF)5502809068
107LMNW1SNAKE-LOWER MONUMENTAL DAM12-05-2022INFLOW (KAF)5972824572
108IHDW1SNAKE-ICE HARBOR DAM12-05-2022INFLOW (KAF)5972827572
109MCDW1COLUMBIA-MCNARY DAM12-05-2022INFLOW (KAF)276033499479
110JDAO3COLUMBIA-JOHN DAY DAM12-05-2022INFLOW (KAF)291133672679
111TDAO3COLUMBIA-THE DALLES DAM12-05-2022INFLOW (KAF)292243738478
112BONO3COLUMBIA-BONNEVILLE DAM12-05-2022INFLOW (KAF)300633920177
113HOPI1PEND OREILLE-PEND OREILLE LAKE NR HOPE12-05-2022LAKE ELEVATION (FT)MMM
114BFEI1KOOTENAI-AT BONNERS FERRY12-05-2022STAGE (FT)MMM
115SJMI1ST JOE-AT ST MARIES12-05-2022STAGE (FT)MMM